Flag for U.S.A. Weather past 2 weeks in Mountain View, California, U.S.A.

Now
73 °F

Sunny.


Feels Like: 76 °F
Forecast: 60 / 85 °F
Wind: 12 mph from Northwest

Location: Moffett Field

Current Time: Aug 1, 2014 at 6:15:57 PM

Latest Report: Aug 1, 2014 at 5:56 PM


Visibility: 10 mi

Pressure: 29.88 "Hg

Humidity: 66%

Dew point: 61 °F

Location of Mountain ViewLocation

Historic Weather in Mountain View — Graph

°F

Mountain View temperature yesterday

Maximum temperature yesterday: 77 °F (at 3:56 PM)
Minimum temperature yesterday: 63 °F (at 12:56 AM)
Average temperature yesterday: 68 °F

Past Weeks' High & Low Weather Summary

 TemperatureHumidityPressure
High93 °F (Jul 25, 2:56 PM)90% (Jul 24, 5:56 AM)30.15 "Hg (Jul 24, 5:56 AM)
Low61 °F (Jul 24, 5:56 AM)19% (Jul 25, 1:56 PM)29.83 "Hg (Jul 25, 4:56 PM)
Average70 °F69%29.98 "Hg
* Reported Jul 17 4:56 PM — Aug 1 4:56 PM, Mountain View, Weather by CustomWeather, © 2014

Note: Actual official high and low records may vary slightly from our data, if they occured in-between our weather recording intervals... More about our weather records

Advertising

Mountain View weather history for previous 24 hours

 ConditionsComfort  
Time TempWeatherWind HumidityBarometerVisibility
4:56 PM
Aug 1
75 °FSunny.13 mph60%29.89 "Hg10 mi
3:56 PM77 °FSunny.12 mph56%29.90 "Hg10 mi
2:56 PM77 °FSunny.12 mph56%29.90 "Hg10 mi
1:56 PM75 °FSunny.12 mph60%29.92 "Hg10 mi
12:56 PM75 °FSunny.9 mph62%29.92 "Hg10 mi
11:56 AM74 °FSunny.12 mph64%29.93 "Hg10 mi
10:56 AM73 °FSunny.8 mph69%29.93 "Hg10 mi
9:56 AM70 °FSunny.6 mph71%29.93 "Hg9 mi
8:56 AM68 °FSunny.3 mph76%29.93 "Hg10 mi
7:56 AM65 °FSunny.No wind85%29.93 "Hg9 mi
6:56 AM63 °FClear.No wind84%29.92 "Hg9 mi
5:56 AM63 °FClear.No wind84%29.91 "Hg10 mi
4:56 AM63 °FClear.No wind84%29.90 "Hg10 mi
3:56 AM63 °FClear.No wind84%29.91 "Hg10 mi
2:56 AM64 °FClear.No wind84%29.91 "Hg10 mi
1:56 AM64 °FClear.No wind84%29.92 "Hg10 mi
12:56 AM64 °FClear.No wind84%29.92 "Hg10 mi
11:56 PM
Jul 31
64 °FClear.No wind84%29.93 "Hg10 mi
10:56 PM65 °FClear.No wind81%29.93 "Hg10 mi
9:56 PM65 °FClear.5 mph85%29.93 "Hg10 mi
8:56 PM66 °FSunny.6 mph81%29.92 "Hg10 mi
7:56 PM69 °FSunny.7 mph76%29.91 "Hg10 mi
6:56 PM72 °FSunny.9 mph66%29.90 "Hg10 mi
Weather by CustomWeather, © 2014

See weather overviewHow to use our weather pages